CZ-6A DEB

Satellite information

Favourite Embed

Satellite Type and Status

DEBRISDECAYED

Key statistics

Satellite CZ-6A DEB at a glance.

Uptime

1112

Days in orbit

Revolutions

≈ 16.0

Per day

Orbit

SSO

Sun Synchronous Orbit

Inclination

98.5

Latest

Satellite identification and parameters

Extended collection of information and parameters for CZ-6A DEB.

Object identification

Identified? True

Debris? True

Object name: CZ-6A DEB

International designator: 2022-151NF

Object number (NORAD): 54605

Object ID (CCSDS): 54605

Country: PEOPLES REPUBLIC OF CHINA (PRC)

Current information (Y/N): Y

RCS size: SMALL

Orbital parameters

Decay date: Nov. 27, 2025

Period: 90.066 minutes

Inclination: 98.5428 deg

SMA: 6655.823 km

Apoapsis: 289.138 km

Periapsis: 266.237 km

RAAN: 59.3706 deg

Eccentricy: 0.00172034

Argument of periapsis: 343.7047 deg

Mean anomaly: 16.3671 deg

Mean motion: 15.98822079 rev/day

Mean motion (dot): 0.05475061 rev/day2

B* drag term: 0.015810808 1/REarth

Two-line elements (TLE)

Creation date: Nov. 27, 2025, 1:14 p.m.

Reference frame: TEME

Reference center: EARTH

Epoch: Nov. 27, 2025, 4:58 a.m. UTC

TLE line 0: 0 CZ-6A DEB

TLE line 1: 1 54605U 22151NF 25331.20746058 .05475061 62706-1 15811-1 0 9994

TLE line 2: 2 54605 98.5428 59.3706 0017203 343.7047 16.3671 15.98822079 90058

Live tracking on map

Satellite CZ-6A DEB has decayed and is no longer in orbit. No tracking available.

In-orbit conjunctions

Satellite CZ-6A DEB has decayed and is no longer in orbit. No conjunctions available.

Associated space launch

Chinese satellite reported for atmospheric/ocean/environmental/spatial parameter research purposes, details TBD.

CZ-6A DEB was lifted into orbit during the mission ‘Long March 6A | Yunhai 3’, on board a Long March 6A space rocket.

The launch took place on Nov. 11, 2022, 10:52 p.m. from Launch Complex 9A.

For more information about the launch, click the button.

Launch to space Long March 6A | Yunhai 3
Long March 6A | Yunhai 3

Agency: N/A

Status: Launch Successful

Launch date: Nov. 11, 2022, 10:52 p.m. UTC

Rocket: Long March 6A

Launch pad: Launch Complex 9A

Location: Taiyuan Satellite Launch Center, People's Republic of China

...

Latest news about this satellite

There are no fresh news available about this satellite. Check back as we update our databases every day.


Newsletter sign-up

Weekly statistics, charts and insights to help you stay on top of the space industry.